SCP
2 2 2 2 2 2 2 2 2 2 1 2 3 4 4 3 4 5 5 3 1 1 1 1 2 1 1 1 1 1 1 1 1 1 1 1 1 1
2 2 2 2 1 2 2 3 3 3 2 2 3 4 4 4 5 6 5 3 2 1 1 1 1 1 1 1 1 1 0 0 1 1 1 1 1 1
2 2 2 2 2 2 2 3 4 4 3 3 3 4 4 5 6 7 6 4 3 1 1 1 1 1 1 0 0 0 0 0 0 0 0 0 0 1
3 3 2 2 2 3 3 3 5 5 5 4 4 4 5 6 6 7 6 5 4 2 1 1 1 0 0 0 0 0 0 0 0 0 0 0 0 0
4 4 4 4 3 4 4 5 5 6 6 5 4 4 5 6 7 7 6 6 5 3 1 1 0 0 0 0 0 0 0 0 0 0 0 0 0 0
5 5 5 5 4 4 5 6 7 7 6 6 5 5 6 7 8 8 6 5 4 3 2 1 1 1 0 0 0 0 0 0 0 0 0 0 0 0
6 6 6 5 4 4 4 5 6 6 6 6 6 6 6 7 8 7 5 4 3 3 2 2 1 1 1 1 0 0 0 0 0 0 0 0 0 0
6 6 5 4 4 3 3 3 3 4 5 6 6 6 6 6 6 5 4 3 3 3 3 2 2 2 2 1 1 0 0 0 0 0 0 0 0 0
6 6 5 4 4 4 3 2 2 2 3 5 6 6 6 6 6 5 4 3 3 3 3 2 2 2 2 1 1 0 0 0 0 0 0 0 0 0
7 6 6 6 5 5 5 4 3 3 2 3 4 4 4 4 5 5 4 3 3 3 3 3 2 2 1 1 1 0 0 0 0 0 0 0 0 0
7 7 7 6 5 5 5 4 4 3 2 2 2 2 2 2 3 3 3 3 3 3 4 3 3 2 2 2 2 1 0 0 0 0 0 0 0 0
6 6 5 5 4 3 4 4 3 3 2 2 1 1 1 1 1 1 2 2 3 3 4 3 3 2 2 2 3 2 1 0 0 0 0 0 0 0
5 5 4 3 2 2 2 3 2 2 2 2 2 1 2 2 2 2 2 2 3 3 3 2 2 2 2 2 3 3 3 1 0 0 0 0 0 0
5 6 5 2 1 1 1 1 1 1 2 2 2 2 2 3 4 3 2 2 2 2 2 1 1 2 2 2 2 3 3 2 1 0 0 0 0 0
5 5 4 2 0 0 0 0 1 1 1 1 1 2 2 4 4 3 3 2 2 2 1 1 1 1 1 1 2 2 2 2 2 1 0 0 0 0
3 3 2 1 1 1 0 0 1 1 1 1 1 1 2 3 3 3 3 2 2 1 1 1 1 1 1 1 1 1 1 2 2 1 1 0 0 0
1 1 1 1 1 1 1 1 1 1 1 1 1 1 1 2 3 3 3 2 2 1 2 1 1 1 1 1 1 1 1 1 2 2 1 1 0 0
1 1 1 1 1 1 1 1 1 1 1 1 1 1 1 2 2 3 2 2 2 1 2 2 2 1 1 1 1 1 1 1 1 1 1 1 0 0
2 1 1 1 1 1 2 2 2 1 1 1 1 1 1 1 2 2 2 2 1 1 1 2 1 1 1 1 1 1 1 1 1 1 1 1 0 0
2 2 2 1 1 2 3 3 3 2 2 1 1 1 1 1 2 2 1 1 1 1 1 1 1 1 1 1 1 1 1 1 1 1 1 1 0 0
2 2 2 1 2 3 4 4 4 3 2 2 2 1 1 1 1 1 1 1 1 1 1 1 1 1 1 1 1 1 1 1 1 1 1 1 0 0
2 2 2 1 2 3 4 4 4 3 3 2 2 2 2 2 1 1 1 1 1 1 1 1 1 1 1 1 1 1 1 1 1 1 0 0 0 0
2 2 2 2 2 3 4 4 4 3 3 3 3 2 2 2 1 1 1 1 1 1 1 1 1 1 1 1 1 1 1 1 1 0 0 0 0 0
Wind_Speed
2 2 2 2 2 2 1 1 1 2 2 1 1 2 1 2 5 4 3 6 8 8 7 7 6 5 5 5 5 4 4 4 4 4 3 4 4 4
2 2 2 2 3 2 2 1 1 2 2 1 1 1 1 1 4 3 4 8 10 10 9 8 7 6 5 6 5 5 4 4 4 4 4 4 4 4
2 2 2 3 3 3 3 2 1 1 2 2 1 1 1 2 2 3 3 5 6 10 10 9 8 7 6 5 5 5 4 4 4 5 5 5 5 5
2 2 3 3 3 3 3 3 2 2 2 2 2 2 2 3 3 4 3 4 4 8 11 10 9 8 7 7 6 5 5 4 4 4 5 5 5 5
2 2 2 3 3 2 3 3 3 3 2 2 2 2 2 2 2 3 3 2 4 5 9 9 9 9 8 8 7 6 6 5 5 5 4 4 5 4
2 2 2 2 3 3 3 3 3 4 3 3 2 1 2 2 1 2 2 2 2 2 2 5 7 8 8 8 7 7 6 6 5 5 5 5 4 4
2 2 2 1 1 2 3 3 4 3 3 3 3 2 2 1 2 2 3 2 2 1 1 2 3 4 5 6 7 8 8 7 7 6 6 6 5 5
3 2 3 2 2 3 4 5 5 4 3 3 3 3 2 2 2 3 2 2 2 1 1 3 3 3 3 4 6 8 8 8 7 7 6 6 5 5
2 2 3 1 1 2 4 5 5 5 5 3 3 4 3 2 3 4 3 3 3 3 2 4 3 3 2 3 7 9 9 9 8 8 7 6 5 5
3 2 2 1 1 2 3 3 3 3 4 3 3 4 3 2 3 4 4 4 4 3 2 3 2 2 2 2 6 8 8 8 7 7 7 6 6 5
3 2 2 1 1 2 2 3 3 3 3 3 3 4 4 4 3 3 3 3 3 2 1 1 1 1 0 1 3 7 7 7 7 7 7 7 6 5
3 2 1 1 1 1 2 3 3 3 3 3 3 4 5 5 5 4 3 3 3 2 1 1 1 0 1 1 1 2 3 5 6 6 6 7 6 3
3 2 1 1 1 3 3 4 4 4 4 4 3 3 3 3 3 3 2 2 3 3 1 1 1 1 1 1 0 1 2 2 3 3 5 6 7 5
3 1 1 2 3 4 4 4 4 4 3 3 3 2 2 2 2 2 2 2 2 3 3 2 1 1 1 1 1 1 2 2 2 2 3 5 6 7
2 2 3 5 5 5 6 6 5 3 3 3 3 2 2 2 2 1 2 2 3 3 2 1 1 1 1 2 1 1 1 2 2 2 2 3 3 4
3 3 5 6 5 5 4 4 5 4 3 3 3 2 2 1 2 1 1 1 2 2 2 1 2 2 2 2 1 1 1 1 2 2 2 2 3 3
2 3 3 2 3 3 3 2 2 2 2 2 2 2 2 2 2 1 1 1 1 2 1 1 2 2 2 1 1 2 2 1 1 1 1 1 1 2
2 3 3 2 2 2 2 2 2 1 2 2 2 2 2 2 2 2 1 1 2 2 2 1 1 0 1 1 1 2 1 1 1 2 2 2 2 1
3 3 3 2 2 2 2 2 1 1 1 2 2 2 2 2 2 2 2 2 2 2 2 1 1 2 2 3 3 3 2 2 2 2 2 1 2 2
3 3 2 2 1 1 1 1 1 1 1 2 2 2 2 2 2 2 2 2 2 2 2 1 1 2 2 3 2 2 4 3 2 2 2 1 1 1
3 2 2 1 1 1 1 1 1 2 2 2 2 2 2 3 3 3 2 2 2 2 2 2 2 3 2 1 2 2 1 3 3 2 2 1 1 2
2 2 1 1 1 1 1 1 1 1 1 1 1 2 2 2 3 3 2 2 2 2 3 2 2 2 2 2 3 3 2 1 1 1 0 2 2 3
2 1 1 1 1 1 1 1 2 1 1 1 1 2 2 2 2 2 2 2 2 2 2 2 2 2 2 2 3 2 1 1 1 1 1 3 3 4
Wind_Direction
291 293 292 296 292 286 284 265 260 283 282 248 207 194 193 149 169 198 175 195 198 200 202 207 213 219 221 221 220 222 230 233 234 239 242 246 246 244
267 297 309 303 306 301 290 271 256 259 272 281 262 233 247 241 192 202 190 191 201 205 206 207 207 210 218 221 222 226 231 235 236 238 241 240 243 242
292 293 298 300 307 313 310 299 279 261 263 286 304 308 223 250 223 232 213 200 204 207 207 207 206 205 212 218 223 223 227 231 235 239 240 237 236 234
279 302 303 296 293 299 304 305 297 284 268 276 277 276 253 234 234 239 237 229 208 204 204 202 203 203 206 210 216 218 221 224 230 235 236 231 228 225
266 281 294 303 302 297 293 302 299 299 284 270 265 264 267 257 251 262 257 252 251 208 196 198 204 204 206 207 209 213 215 217 223 228 227 226 227 225
273 276 280 287 295 295 292 302 300 298 291 286 280 272 286 296 271 267 274 258 267 258 208 197 202 205 207 206 205 208 211 213 216 219 221 220 219 218
258 258 246 231 257 287 298 310 307 301 293 289 283 286 289 308 294 280 274 280 277 265 247 218 199 202 207 210 210 211 209 208 210 214 217 218 214 212
255 258 243 213 230 251 272 278 274 278 295 297 293 292 288 290 294 287 284 283 276 247 245 258 215 205 202 194 197 198 202 204 206 209 209 209 209 208
257 260 269 263 230 268 264 270 278 270 257 267 283 289 291 292 284 284 279 271 266 264 241 252 223 217 209 196 188 193 198 201 203 204 203 201 203 205
250 252 252 269 286 306 286 279 271 281 265 251 262 276 286 281 266 267 268 266 259 254 233 250 248 236 212 179 191 195 199 199 201 204 202 201 202 207
245 246 244 213 314 321 285 287 293 298 296 284 276 279 277 274 269 288 284 279 275 260 247 236 260 269 241 218 202 191 191 196 201 206 205 203 204 207
242 211 151 137 278 305 284 281 282 291 301 296 279 272 262 259 248 238 264 276 280 275 243 238 251 246 262 245 141 165 192 204 205 209 210 206 200 192
259 245 175 165 253 261 264 263 266 282 281 273 262 258 256 253 241 223 235 252 268 270 270 246 262 258 218 245 202 197 189 178 187 212 217 207 198 192
275 272 225 240 261 262 259 256 268 279 270 273 275 279 279 279 272 254 245 243 251 257 263 241 242 236 238 255 247 209 208 187 183 197 195 188 200 210
283 296 285 267 262 250 238 246 255 254 257 267 273 274 276 276 276 264 248 236 247 265 266 232 235 242 229 243 241 231 241 222 200 191 184 182 190 191
264 267 257 253 255 257 252 235 233 239 246 260 270 276 281 278 277 272 267 253 252 261 259 239 243 234 232 246 237 240 247 213 206 216 207 204 205 199
270 261 248 233 235 233 227 227 236 248 263 275 281 288 294 291 279 279 282 291 272 272 266 255 242 223 231 255 246 235 228 230 214 206 200 217 220 202
212 240 250 247 251 261 259 241 233 237 259 277 286 289 286 282 288 289 278 270 280 284 278 246 258 280 299 306 246 233 223 235 228 219 204 201 222 229
210 237 242 248 262 271 270 272 271 265 278 281 279 282 286 292 299 300 299 291 289 284 291 275 249 231 243 266 271 229 221 232 231 228 221 218 231 230
226 240 245 252 267 281 284 296 306 301 294 289 288 294 296 294 296 290 277 278 290 293 294 289 263 252 246 259 265 261 226 227 219 220 219 226 252 268
235 237 246 261 269 273 283 280 274 273 278 282 287 304 313 308 302 300 300 282 282 286 290 289 278 269 265 268 267 267 253 236 227 210 206 207 237 229
258 259 253 268 278 269 261 273 290 291 298 303 316 310 304 311 312 311 314 315 301 294 298 303 301 295 278 253 257 257 239 225 215 164 272 213 208 222
243 266 278 284 297 313 347 318 319 324 337 336 328 318 316 308 300 302 306 304 295 290 295 301 304 293 279 265 262 261 239 219 203 183 254 260 235 224